Time,TemperatureF,DewpointF,PressureIn,WindDirection,WindDirectionDegrees,WindSpeedMPH,WindSpeedGustMPH,Humidity,HourlyPrecipIn,Conditions,Clouds,dailyrainin,SoftwareType,DateUTC
2013-10-12 00:01:00,68.7,64.7,30.03,SSE,163,0.0,0.0,87,0.00,,,0.00,WeatherCatV1.02B3,2013-10-12 05:01:00,
2013-10-12 00:06:00,68.6,64.6,30.03,SSE,163,0.0,0.0,87,0.00,,,0.00,WeatherCatV1.02B3,2013-10-12 05:06:00,
2013-10-12 00:11:00,68.4,64.4,30.03,SSE,163,0.0,0.0,87,0.00,,,0.00,WeatherCatV1.02B3,2013-10-12 05:11:00,
2013-10-12 00:16:00,68.3,64.6,30.02,SSE,163,0.0,0.0,88,0.00,,,0.00,WeatherCatV1.02B3,2013-10-12 05:16:00,
2013-10-12 00:21:00,68.3,64.6,30.02,SSE,163,0.0,0.0,88,0.00,,,0.00,WeatherCatV1.02B3,2013-10-12 05:21:00,
2013-10-12 00:26:00,68.2,64.5,30.03,SSE,163,0.0,0.0,88,0.00,,,0.00,WeatherCatV1.02B3,2013-10-12 05:26:00,
2013-10-12 00:31:00,68.1,64.4,30.03,SSE,163,0.0,0.0,88,0.00,,,0.00,WeatherCatV1.02B3,2013-10-12 05:31:00,
2013-10-12 00:36:00,68.0,64.3,30.03,SSE,163,0.0,0.0,88,0.00,,,0.00,WeatherCatV1.02B3,2013-10-12 05:36:00,
2013-10-12 00:41:00,67.9,64.2,30.03,SSE,163,0.0,0.0,88,0.00,,,0.00,WeatherCatV1.02B3,2013-10-12 05:41:00,
2013-10-12 00:46:00,67.8,64.4,30.03,SSE,163,0.0,0.0,89,0.00,,,0.00,WeatherCatV1.02B3,2013-10-12 05:46:00,
2013-10-12 00:51:00,67.6,64.2,30.03,SSE,163,0.0,0.0,89,0.00,,,0.00,WeatherCatV1.02B3,2013-10-12 05:51:00,
2013-10-12 00:56:00,67.5,64.5,30.03,SSE,163,0.0,0.0,90,0.00,,,0.00,WeatherCatV1.02B3,2013-10-12 05:56:00,
2013-10-12 01:01:00,67.4,64.4,30.03,SSE,163,0.0,0.0,90,0.00,,,0.00,WeatherCatV1.02B3,2013-10-12 06:01:00,
2013-10-12 01:06:00,67.2,64.2,30.03,SSE,163,0.0,0.0,90,0.00,,,0.00,WeatherCatV1.02B3,2013-10-12 06:06:00,
2013-10-12 01:11:00,67.1,64.1,30.03,SSE,163,0.0,0.0,90,0.00,,,0.00,WeatherCatV1.02B3,2013-10-12 06:11:00,
2013-10-12 01:16:00,67.1,64.1,30.03,SSE,163,0.0,0.0,90,0.00,,,0.00,WeatherCatV1.02B3,2013-10-12 06:16:00,
2013-10-12 01:21:00,67.0,64.3,30.03,SSE,163,0.0,0.0,91,0.00,,,0.00,WeatherCatV1.02B3,2013-10-12 06:21:00,
2013-10-12 01:26:00,66.9,64.2,30.03,SSE,163,0.0,0.0,91,0.00,,,0.00,WeatherCatV1.02B3,2013-10-12 06:26:00,
2013-10-12 01:31:00,66.8,64.1,30.03,SSE,163,0.0,0.0,91,0.00,,,0.00,WeatherCatV1.02B3,2013-10-12 06:31:00,
2013-10-12 01:36:00,66.7,64.0,30.03,SSE,163,0.0,0.0,91,0.00,,,0.00,WeatherCatV1.02B3,2013-10-12 06:36:00,
2013-10-12 01:41:00,66.6,63.9,30.03,SSE,163,0.0,0.0,91,0.00,,,0.00,WeatherCatV1.02B3,2013-10-12 06:41:00,
2013-10-12 01:46:00,66.5,63.8,30.03,SSE,163,0.0,0.0,91,0.00,,,0.00,WeatherCatV1.02B3,2013-10-12 06:46:00,
2013-10-12 01:51:00,66.5,64.1,30.02,SSE,163,0.0,0.0,92,0.00,,,0.00,WeatherCatV1.02B3,2013-10-12 06:51:00,
2013-10-12 01:56:00,66.6,64.2,30.02,SSE,163,0.0,0.0,92,0.00,,,0.00,WeatherCatV1.02B3,2013-10-12 06:56:00,
2013-10-12 02:01:00,66.8,64.4,30.03,SSE,163,0.0,0.0,92,0.00,,,0.00,WeatherCatV1.02B3,2013-10-12 07:01:00,
2013-10-12 02:06:00,66.9,64.5,30.02,SSE,163,0.0,0.0,92,0.00,,,0.00,WeatherCatV1.02B3,2013-10-12 07:06:00,
2013-10-12 02:11:00,66.8,64.4,30.02,SSE,163,0.0,0.0,92,0.00,,,0.00,WeatherCatV1.02B3,2013-10-12 07:11:00,
2013-10-12 02:16:00,66.8,64.4,30.02,SSE,163,0.0,0.0,92,0.00,,,0.00,WeatherCatV1.02B3,2013-10-12 07:16:00,
2013-10-12 02:21:00,66.8,64.7,30.02,SSE,163,0.0,0.0,93,0.00,,,0.00,WeatherCatV1.02B3,2013-10-12 07:21:00,
2013-10-12 02:26:00,66.7,64.6,30.02,SSE,163,0.0,0.0,93,0.00,,,0.00,WeatherCatV1.02B3,2013-10-12 07:26:00,
2013-10-12 02:31:00,66.7,64.6,30.02,SSE,163,0.0,0.0,93,0.00,,,0.00,WeatherCatV1.02B3,2013-10-12 07:31:00,
2013-10-12 02:36:00,66.6,64.5,30.02,SSE,163,0.0,0.0,93,0.00,,,0.00,WeatherCatV1.02B3,2013-10-12 07:36:00,
2013-10-12 02:41:00,66.6,64.5,30.02,SSE,163,0.0,0.0,93,0.00,,,0.00,WeatherCatV1.02B3,2013-10-12 07:41:00,
2013-10-12 02:46:00,66.4,64.3,30.02,SSE,163,0.0,0.0,93,0.00,,,0.00,WeatherCatV1.02B3,2013-10-12 07:46:00,
2013-10-12 02:51:00,66.3,64.2,30.02,SSE,163,0.0,0.0,93,0.00,,,0.00,WeatherCatV1.02B3,2013-10-12 07:51:00,
2013-10-12 02:56:00,66.2,64.1,30.02,SSE,163,0.0,0.0,93,0.00,,,0.00,WeatherCatV1.02B3,2013-10-12 07:56:00,
2013-10-12 03:01:00,66.1,64.0,30.02,SSE,163,0.0,0.0,93,0.00,,,0.00,WeatherCatV1.02B3,2013-10-12 08:01:00,
2013-10-12 03:06:00,66.0,63.9,30.02,SSE,163,0.0,0.0,93,0.00,,,0.00,WeatherCatV1.02B3,2013-10-12 08:06:00,
2013-10-12 03:11:00,65.9,63.8,30.02,SSE,163,0.0,0.0,93,0.00,,,0.00,WeatherCatV1.02B3,2013-10-12 08:11:00,
2013-10-12 03:16:00,65.8,63.7,30.02,SSE,163,0.0,0.0,93,0.00,,,0.00,WeatherCatV1.02B3,2013-10-12 08:16:00,
2013-10-12 03:21:00,65.8,63.7,30.02,SSE,163,0.0,0.0,93,0.00,,,0.00,WeatherCatV1.02B3,2013-10-12 08:21:00,
2013-10-12 03:26:00,65.7,63.6,30.02,SSE,163,0.0,0.0,93,0.00,,,0.00,WeatherCatV1.02B3,2013-10-12 08:26:00,
2013-10-12 03:31:00,65.6,63.5,30.02,SSE,163,0.0,0.0,93,0.00,,,0.00,WeatherCatV1.02B3,2013-10-12 08:31:00,
2013-10-12 03:36:00,65.6,63.8,30.02,SSE,163,0.0,0.0,94,0.00,,,0.00,WeatherCatV1.02B3,2013-10-12 08:36:00,
2013-10-12 03:41:00,65.5,63.7,30.02,SSE,163,0.0,0.0,94,0.00,,,0.00,WeatherCatV1.02B3,2013-10-12 08:41:00,
2013-10-12 03:46:00,65.4,63.6,30.02,SSE,163,0.0,0.0,94,0.00,,,0.00,WeatherCatV1.02B3,2013-10-12 08:46:00,
2013-10-12 03:51:00,65.4,63.6,30.02,SSE,163,0.0,0.0,94,0.00,,,0.00,WeatherCatV1.02B3,2013-10-12 08:51:00,
2013-10-12 03:56:00,65.4,63.6,30.02,SSE,163,0.0,0.0,94,0.00,,,0.00,WeatherCatV1.02B3,2013-10-12 08:56:00,
2013-10-12 04:01:00,65.4,63.6,30.02,SSE,163,0.0,0.0,94,0.00,,,0.00,WeatherCatV1.02B3,2013-10-12 09:01:00,
2013-10-12 04:06:00,65.3,63.5,30.02,SSE,163,0.0,0.0,94,0.00,,,0.00,WeatherCatV1.02B3,2013-10-12 09:06:00,
2013-10-12 04:11:00,65.3,63.5,30.02,SSE,163,0.0,0.0,94,0.00,,,0.00,WeatherCatV1.02B3,2013-10-12 09:11:00,
2013-10-12 04:16:00,65.2,63.4,30.02,SSE,163,0.0,0.0,94,0.00,,,0.00,WeatherCatV1.02B3,2013-10-12 09:16:00,
2013-10-12 04:21:00,65.2,63.4,30.03,SSE,163,0.0,0.0,94,0.00,,,0.00,WeatherCatV1.02B3,2013-10-12 09:21:00,
2013-10-12 04:26:00,65.2,63.4,30.03,SSE,163,0.0,0.0,94,0.00,,,0.00,WeatherCatV1.02B3,2013-10-12 09:26:00,
2013-10-12 04:31:00,65.2,63.4,30.03,SSE,163,0.0,0.0,94,0.00,,,0.00,WeatherCatV1.02B3,2013-10-12 09:31:00,
2013-10-12 04:36:00,65.2,63.4,30.03,SSE,163,0.0,0.0,94,0.00,,,0.00,WeatherCatV1.02B3,2013-10-12 09:36:00,
2013-10-12 04:41:00,65.3,63.5,30.03,SSE,163,0.0,0.0,94,0.00,,,0.00,WeatherCatV1.02B3,2013-10-12 09:41:00,
2013-10-12 04:46:00,65.4,63.6,30.03,SSE,163,0.0,0.0,94,0.00,,,0.00,WeatherCatV1.02B3,2013-10-12 09:46:00,
2013-10-12 04:51:00,65.3,63.5,30.03,SSE,163,0.0,0.0,94,0.00,,,0.00,WeatherCatV1.02B3,2013-10-12 09:51:00,
2013-10-12 04:56:00,65.2,63.4,30.03,SSE,163,0.0,0.0,94,0.00,,,0.00,WeatherCatV1.02B3,2013-10-12 09:56:00,
2013-10-12 05:01:00,65.1,63.3,30.04,SSE,163,0.0,0.0,94,0.00,,,0.00,WeatherCatV1.02B3,2013-10-12 10:01:00,
2013-10-12 05:06:00,65.0,63.2,30.04,SSE,163,0.0,0.0,94,0.00,,,0.00,WeatherCatV1.02B3,2013-10-12 10:06:00,
2013-10-12 05:11:00,65.0,63.5,30.04,SSE,163,0.0,0.0,95,0.00,,,0.00,WeatherCatV1.02B3,2013-10-12 10:11:00,
2013-10-12 05:16:00,65.0,63.5,30.04,SSE,163,0.0,0.0,95,0.00,,,0.00,WeatherCatV1.02B3,2013-10-12 10:16:00,
2013-10-12 05:21:00,64.9,63.4,30.05,SSE,163,0.0,0.0,95,0.00,,,0.00,WeatherCatV1.02B3,2013-10-12 10:21:00,
2013-10-12 05:26:00,64.9,63.4,30.05,SSE,163,0.0,0.0,95,0.00,,,0.00,WeatherCatV1.02B3,2013-10-12 10:26:00,
2013-10-12 05:31:00,64.8,63.3,30.05,SSE,163,0.0,0.0,95,0.00,,,0.00,WeatherCatV1.02B3,2013-10-12 10:31:00,
2013-10-12 05:36:00,64.8,63.3,30.05,SSE,163,0.0,0.0,95,0.00,,,0.00,WeatherCatV1.02B3,2013-10-12 10:36:00,
2013-10-12 05:41:00,64.7,63.2,30.05,SSE,163,0.0,0.0,95,0.00,,,0.00,WeatherCatV1.02B3,2013-10-12 10:41:00,
2013-10-12 05:46:00,64.7,63.2,30.06,SSE,163,0.0,0.0,95,0.00,,,0.00,WeatherCatV1.02B3,2013-10-12 10:46:00,
2013-10-12 05:51:00,64.6,63.1,30.06,SSE,163,0.0,0.0,95,0.00,,,0.00,WeatherCatV1.02B3,2013-10-12 10:51:00,
2013-10-12 05:56:00,64.6,63.1,30.06,SSE,163,0.0,0.0,95,0.00,,,0.00,WeatherCatV1.02B3,2013-10-12 10:56:00,
2013-10-12 06:01:00,64.6,63.1,30.06,SSE,163,0.0,0.0,95,0.00,,,0.00,WeatherCatV1.02B3,2013-10-12 11:01:00,
2013-10-12 06:06:00,64.5,63.0,30.06,SSE,163,0.0,0.0,95,0.00,,,0.00,WeatherCatV1.02B3,2013-10-12 11:06:00,
2013-10-12 06:11:00,64.5,63.0,30.06,SSE,163,0.0,0.0,95,0.00,,,0.00,WeatherCatV1.02B3,2013-10-12 11:11:00,
2013-10-12 06:16:00,64.5,63.0,30.06,SSE,163,0.0,0.0,95,0.00,,,0.00,WeatherCatV1.02B3,2013-10-12 11:16:00,
2013-10-12 06:21:00,64.4,62.9,30.07,SSE,163,0.0,0.0,95,0.00,,,0.00,WeatherCatV1.02B3,2013-10-12 11:21:00,
2013-10-12 06:26:00,64.4,62.9,30.06,SSE,163,0.0,0.0,95,0.00,,,0.00,WeatherCatV1.02B3,2013-10-12 11:26:00,
2013-10-12 06:31:00,64.3,62.8,30.07,SSE,163,0.0,0.0,95,0.00,,,0.00,WeatherCatV1.02B3,2013-10-12 11:31:00,
2013-10-12 06:36:00,64.2,62.7,30.07,SSE,163,0.0,0.0,95,0.00,,,0.00,WeatherCatV1.02B3,2013-10-12 11:36:00,
2013-10-12 06:41:00,64.2,62.7,30.07,SSE,163,0.0,0.0,95,0.00,,,0.00,WeatherCatV1.02B3,2013-10-12 11:41:00,
2013-10-12 06:46:00,64.1,62.6,30.07,SSE,163,0.0,0.0,95,0.00,,,0.00,WeatherCatV1.02B3,2013-10-12 11:46:00,
2013-10-12 06:51:00,64.1,62.6,30.07,SSE,163,0.0,0.0,95,0.00,,,0.00,WeatherCatV1.02B3,2013-10-12 11:51:00,
2013-10-12 06:56:00,64.0,62.5,30.07,SSE,163,0.0,0.0,95,0.00,,,0.00,WeatherCatV1.02B3,2013-10-12 11:56:00,
2013-10-12 07:01:00,64.0,62.5,30.07,SSE,163,0.0,0.0,95,0.00,,,0.00,WeatherCatV1.02B3,2013-10-12 12:01:00,
2013-10-12 07:06:00,64.0,62.5,30.07,SSE,163,0.0,0.0,95,0.00,,,0.00,WeatherCatV1.02B3,2013-10-12 12:06:00,
2013-10-12 07:11:00,63.9,62.4,30.07,SSE,163,0.0,0.0,95,0.00,,,0.00,WeatherCatV1.02B3,2013-10-12 12:11:00,
2013-10-12 07:16:00,63.9,62.4,30.07,SSE,163,0.0,0.0,95,0.00,,,0.00,WeatherCatV1.02B3,2013-10-12 12:16:00,
2013-10-12 07:21:00,63.9,62.4,30.08,SSE,163,0.0,0.0,95,0.00,,,0.00,WeatherCatV1.02B3,2013-10-12 12:21:00,
2013-10-12 07:26:00,63.9,62.4,30.08,SSE,163,0.0,0.0,95,0.00,,,0.00,WeatherCatV1.02B3,2013-10-12 12:26:00,
2013-10-12 07:31:00,63.9,62.4,30.08,SSE,163,0.0,0.0,95,0.00,,,0.00,WeatherCatV1.02B3,2013-10-12 12:31:00,
2013-10-12 07:36:00,63.9,62.4,30.08,SSE,163,0.0,0.0,95,0.00,,,0.00,WeatherCatV1.02B3,2013-10-12 12:36:00,
2013-10-12 07:41:00,63.9,62.4,30.08,SSE,163,0.0,0.0,95,0.00,,,0.00,WeatherCatV1.02B3,2013-10-12 12:41:00,
2013-10-12 07:46:00,64.0,62.5,30.08,SSE,163,0.0,0.0,95,0.00,,,0.00,WeatherCatV1.02B3,2013-10-12 12:46:00,
2013-10-12 07:51:00,64.1,62.6,30.09,SSE,163,0.0,0.0,95,0.00,,,0.00,WeatherCatV1.02B3,2013-10-12 12:51:00,
2013-10-12 07:56:00,64.1,62.6,30.09,SSE,163,0.0,0.0,95,0.00,,,0.00,WeatherCatV1.02B3,2013-10-12 12:56:00,
2013-10-12 08:01:00,64.3,63.1,30.09,SSE,163,0.0,0.0,96,0.00,,,0.00,WeatherCatV1.02B3,2013-10-12 13:01:00,
2013-10-12 08:06:00,64.3,63.1,30.09,SSE,163,0.0,0.0,96,0.00,,,0.00,WeatherCatV1.02B3,2013-10-12 13:06:00,
2013-10-12 08:11:00,64.5,63.3,30.09,SSE,163,0.0,0.0,96,0.00,,,0.00,WeatherCatV1.02B3,2013-10-12 13:11:00,
2013-10-12 08:16:00,64.6,63.4,30.09,SSE,163,0.0,0.0,96,0.00,,,0.00,WeatherCatV1.02B3,2013-10-12 13:16:00,
2013-10-12 08:21:00,64.9,63.7,30.09,SSE,163,0.0,0.0,96,0.00,,,0.00,WeatherCatV1.02B3,2013-10-12 13:21:00,
2013-10-12 08:26:00,65.4,64.2,30.09,SSE,163,0.0,0.0,96,0.00,,,0.00,WeatherCatV1.02B3,2013-10-12 13:26:00,
2013-10-12 08:31:00,65.9,64.7,30.10,SSE,163,0.0,4.0,96,0.00,,,0.00,WeatherCatV1.02B3,2013-10-12 13:31:00,
2013-10-12 08:36:00,66.9,65.7,30.10,SSE,163,0.0,2.0,96,0.00,,,0.00,WeatherCatV1.02B3,2013-10-12 13:36:00,
2013-10-12 08:41:00,67.8,66.9,30.10,SSE,163,0.0,1.0,97,0.00,,,0.00,WeatherCatV1.02B3,2013-10-12 13:41:00,
2013-10-12 08:46:00,68.6,67.7,30.10,SSE,163,0.0,0.0,97,0.00,,,0.00,WeatherCatV1.02B3,2013-10-12 13:46:00,
2013-10-12 08:51:00,69.1,68.2,30.10,SSE,163,0.0,0.0,97,0.00,,,0.00,WeatherCatV1.02B3,2013-10-12 13:51:00,
2013-10-12 08:56:00,69.8,68.9,30.10,SSE,158,0.0,0.0,97,0.00,,,0.00,WeatherCatV1.02B3,2013-10-12 13:56:00,
2013-10-12 09:01:00,70.1,68.9,30.10,SSE,159,1.0,4.0,96,0.00,,,0.00,WeatherCatV1.02B3,2013-10-12 14:01:00,
2013-10-12 09:06:00,70.5,69.6,30.10,SSE,159,0.0,2.0,97,0.00,,,0.00,WeatherCatV1.02B3,2013-10-12 14:06:00,
2013-10-12 09:11:00,70.8,69.6,30.10,SSW,194,0.0,1.0,96,0.00,,,0.00,WeatherCatV1.02B3,2013-10-12 14:11:00,
2013-10-12 09:16:00,71.0,69.8,30.10,WSW,251,0.0,4.0,96,0.00,,,0.00,WeatherCatV1.02B3,2013-10-12 14:16:00,
2013-10-12 09:21:00,71.3,70.1,30.10,WSW,251,0.0,0.0,96,0.00,,,0.00,WeatherCatV1.02B3,2013-10-12 14:21:00,
2013-10-12 09:26:00,71.5,70.3,30.10,SSW,192,0.0,1.0,96,0.00,,,0.00,WeatherCatV1.02B3,2013-10-12 14:26:00,
2013-10-12 09:31:00,71.7,70.5,30.10,SSW,192,0.0,1.0,96,0.00,,,0.00,WeatherCatV1.02B3,2013-10-12 14:31:00,
2013-10-12 09:36:00,71.9,70.4,30.10,SSW,194,0.0,1.0,95,0.00,,,0.00,WeatherCatV1.02B3,2013-10-12 14:36:00,
2013-10-12 09:41:00,71.9,70.4,30.10,SSW,205,0.0,0.0,95,0.00,,,0.00,WeatherCatV1.02B3,2013-10-12 14:41:00,
2013-10-12 09:46:00,72.1,70.3,30.10,SSW,209,0.0,2.0,94,0.00,,,0.00,WeatherCatV1.02B3,2013-10-12 14:46:00,
2013-10-12 09:51:00,72.4,70.6,30.10,SSW,209,0.0,0.0,94,0.00,,,0.00,WeatherCatV1.02B3,2013-10-12 14:51:00,
2013-10-12 09:56:00,72.8,70.7,30.10,SSW,200,0.0,1.0,93,0.00,,,0.00,WeatherCatV1.02B3,2013-10-12 14:56:00,
2013-10-12 10:01:00,73.2,70.7,30.10,SSW,202,0.0,3.0,92,0.00,,,0.00,WeatherCatV1.02B3,2013-10-12 15:01:00,
2013-10-12 10:06:00,73.7,70.9,30.10,SSW,202,0.0,2.0,91,0.00,,,0.00,WeatherCatV1.02B3,2013-10-12 15:06:00,
2013-10-12 10:11:00,74.1,71.0,30.10,SSW,202,0.0,0.0,90,0.00,,,0.00,WeatherCatV1.02B3,2013-10-12 15:11:00,
2013-10-12 10:16:00,74.7,71.6,30.10,SSW,202,0.0,0.0,90,0.00,,,0.00,WeatherCatV1.02B3,2013-10-12 15:16:00,
2013-10-12 10:21:00,75.2,71.4,30.10,SSW,203,0.0,0.0,88,0.00,,,0.00,WeatherCatV1.02B3,2013-10-12 15:21:00,
2013-10-12 10:26:00,75.5,71.3,30.10,SSW,203,0.0,0.0,87,0.00,,,0.00,WeatherCatV1.02B3,2013-10-12 15:26:00,
2013-10-12 10:31:00,75.8,71.6,30.10,SSW,200,1.0,1.0,87,0.00,,,0.00,WeatherCatV1.02B3,2013-10-12 15:31:00,
2013-10-12 10:36:00,76.2,71.7,30.10,SE,130,0.0,6.0,86,0.00,,,0.00,WeatherCatV1.02B3,2013-10-12 15:36:00,
2013-10-12 10:41:00,76.6,71.4,30.10,SE,138,1.0,1.0,84,0.00,,,0.00,WeatherCatV1.02B3,2013-10-12 15:41:00,
2013-10-12 10:46:00,76.8,71.2,30.10,South,187,0.0,1.0,83,0.00,,,0.00,WeatherCatV1.02B3,2013-10-12 15:46:00,
2013-10-12 10:51:00,77.1,71.5,30.10,SW,228,3.0,3.0,83,0.00,,,0.00,WeatherCatV1.02B3,2013-10-12 15:51:00,
2013-10-12 10:56:00,77.5,71.6,30.10,SW,215,0.0,0.0,82,0.00,,,0.00,WeatherCatV1.02B3,2013-10-12 15:56:00,
2013-10-12 11:01:00,77.8,71.5,30.10,SW,215,0.0,1.0,81,0.00,,,0.00,WeatherCatV1.02B3,2013-10-12 16:01:00,
2013-10-12 11:06:00,78.2,71.9,30.10,SW,214,0.0,2.0,81,0.00,,,0.00,WeatherCatV1.02B3,2013-10-12 16:06:00,
2013-10-12 11:11:00,78.6,71.9,30.10,SW,214,0.0,1.0,80,0.00,,,0.00,WeatherCatV1.02B3,2013-10-12 16:11:00,
2013-10-12 11:16:00,79.0,71.5,30.10,SW,216,0.0,2.0,78,0.00,,,0.00,WeatherCatV1.02B3,2013-10-12 16:16:00,
2013-10-12 11:21:00,79.2,71.3,30.10,SW,216,0.0,0.0,77,0.00,,,0.00,WeatherCatV1.02B3,2013-10-12 16:21:00,
2013-10-12 11:26:00,79.5,72.0,30.10,SSE,149,0.0,5.0,78,0.00,,,0.00,WeatherCatV1.02B3,2013-10-12 16:26:00,
2013-10-12 11:31:00,79.4,71.2,30.10,SW,215,0.0,1.0,76,0.00,,,0.00,WeatherCatV1.02B3,2013-10-12 16:31:00,
2013-10-12 11:36:00,79.3,71.1,30.10,SW,215,0.0,0.0,76,0.00,,,0.00,WeatherCatV1.02B3,2013-10-12 16:36:00,
2013-10-12 11:41:00,79.6,71.7,30.10,SW,215,1.0,1.0,77,0.00,,,0.00,WeatherCatV1.02B3,2013-10-12 16:41:00,
2013-10-12 11:46:00,79.8,71.9,30.10,SSE,157,0.0,5.0,77,0.00,,,0.00,WeatherCatV1.02B3,2013-10-12 16:46:00,
2013-10-12 11:51:00,80.3,72.4,30.10,SSE,155,0.0,0.0,77,0.00,,,0.00,WeatherCatV1.02B3,2013-10-12 16:51:00,
2013-10-12 11:56:00,80.8,72.5,30.10,SSE,155,0.0,1.0,76,0.00,,,0.00,WeatherCatV1.02B3,2013-10-12 16:56:00,
2013-10-12 12:01:00,81.4,72.7,30.10,SSE,155,0.0,0.0,75,0.00,,,0.00,WeatherCatV1.02B3,2013-10-12 17:01:00,
2013-10-12 12:06:00,81.9,72.0,30.10,SSE,167,0.0,2.0,72,0.00,,,0.00,WeatherCatV1.02B3,2013-10-12 17:06:00,
2013-10-12 12:11:00,81.7,70.9,30.09,SSE,167,0.0,1.0,70,0.00,,,0.00,WeatherCatV1.02B3,2013-10-12 17:11:00,
2013-10-12 12:16:00,81.4,71.1,30.09,SSE,168,0.0,1.0,71,0.00,,,0.00,WeatherCatV1.02B3,2013-10-12 17:16:00,
2013-10-12 12:21:00,81.6,71.3,30.10,WNW,282,0.0,1.0,71,0.00,,,0.00,WeatherCatV1.02B3,2013-10-12 17:21:00,
2013-10-12 12:26:00,81.3,70.6,30.09,West,281,0.0,0.0,70,0.00,,,0.00,WeatherCatV1.02B3,2013-10-12 17:26:00,
2013-10-12 12:31:00,80.9,70.6,30.09,WNW,282,0.0,1.0,71,0.00,,,0.00,WeatherCatV1.02B3,2013-10-12 17:31:00,
2013-10-12 12:36:00,80.9,70.6,30.09,WNW,282,1.0,2.0,71,0.00,,,0.00,WeatherCatV1.02B3,2013-10-12 17:36:00,
2013-10-12 12:41:00,80.9,70.6,30.08,WNW,282,0.0,0.0,71,0.00,,,0.00,WeatherCatV1.02B3,2013-10-12 17:41:00,
2013-10-12 12:46:00,80.8,70.1,30.08,WNW,282,0.0,0.0,70,0.00,,,0.00,WeatherCatV1.02B3,2013-10-12 17:46:00,
2013-10-12 12:51:00,80.9,70.2,30.08,WNW,282,0.0,1.0,70,0.00,,,0.00,WeatherCatV1.02B3,2013-10-12 17:51:00,
2013-10-12 12:56:00,81.4,70.2,30.08,WNW,302,0.0,2.0,69,0.00,,,0.00,WeatherCatV1.02B3,2013-10-12 17:56:00,
2013-10-12 13:01:00,81.9,71.1,30.08,SSW,201,1.0,4.0,70,0.00,,,0.00,WeatherCatV1.02B3,2013-10-12 18:01:00,
2013-10-12 13:06:00,82.5,70.8,30.07,SE,137,0.0,0.0,68,0.00,,,0.00,WeatherCatV1.02B3,2013-10-12 18:06:00,
2013-10-12 13:11:00,83.0,71.8,30.07,SE,137,0.0,0.0,69,0.00,,,0.00,WeatherCatV1.02B3,2013-10-12 18:11:00,
2013-10-12 13:16:00,83.1,70.5,30.07,South,171,0.0,0.0,66,0.00,,,0.00,WeatherCatV1.02B3,2013-10-12 18:16:00,
2013-10-12 13:21:00,83.3,71.6,30.07,SSE,160,1.0,1.0,68,0.00,,,0.00,WeatherCatV1.02B3,2013-10-12 18:21:00,
2013-10-12 13:26:00,83.6,71.0,30.06,SSE,160,0.0,1.0,66,0.00,,,0.00,WeatherCatV1.02B3,2013-10-12 18:26:00,
2013-10-12 13:31:00,83.8,70.8,30.06,SSE,160,0.0,0.0,65,0.00,,,0.00,WeatherCatV1.02B3,2013-10-12 18:31:00,
2013-10-12 13:36:00,84.0,70.5,30.06,West,261,0.0,1.0,64,0.00,,,0.00,WeatherCatV1.02B3,2013-10-12 18:36:00,
2013-10-12 13:41:00,84.7,71.6,30.06,South,191,0.0,0.0,65,0.00,,,0.00,WeatherCatV1.02B3,2013-10-12 18:41:00,
2013-10-12 13:46:00,85.3,71.2,30.06,South,191,0.0,0.0,63,0.00,,,0.00,WeatherCatV1.02B3,2013-10-12 18:46:00,
2013-10-12 13:51:00,85.0,70.5,30.05,South,191,0.0,0.0,62,0.00,,,0.00,WeatherCatV1.02B3,2013-10-12 18:51:00,
2013-10-12 13:56:00,84.6,70.1,30.05,South,191,0.0,0.0,62,0.00,,,0.00,WeatherCatV1.02B3,2013-10-12 18:56:00,
2013-10-12 14:01:00,85.1,71.1,30.05,East,82,0.0,2.0,63,0.00,,,0.00,WeatherCatV1.02B3,2013-10-12 19:01:00,
2013-10-12 14:06:00,85.6,72.0,30.05,East,82,1.0,1.0,64,0.00,,,0.00,WeatherCatV1.02B3,2013-10-12 19:06:00,
2013-10-12 14:11:00,86.1,72.0,30.05,East,82,0.0,0.0,63,0.00,,,0.00,WeatherCatV1.02B3,2013-10-12 19:11:00,
2013-10-12 14:16:00,86.4,71.3,30.04,East,82,0.0,0.0,61,0.00,,,0.00,WeatherCatV1.02B3,2013-10-12 19:16:00,
2013-10-12 14:21:00,86.6,71.5,30.04,ESE,107,1.0,2.0,61,0.00,,,0.00,WeatherCatV1.02B3,2013-10-12 19:21:00,
2013-10-12 14:26:00,86.5,69.9,30.05,ESE,107,0.0,0.0,58,0.00,,,0.00,WeatherCatV1.02B3,2013-10-12 19:26:00,
2013-10-12 14:31:00,86.2,69.7,30.05,NE,39,0.0,1.0,58,0.00,,,0.00,WeatherCatV1.02B3,2013-10-12 19:31:00,
2013-10-12 14:36:00,85.9,70.4,30.05,NNE,24,0.0,0.0,60,0.00,,,0.00,WeatherCatV1.02B3,2013-10-12 19:36:00,
2013-10-12 14:41:00,85.6,70.6,30.05,NNW,341,0.0,3.0,61,0.00,,,0.00,WeatherCatV1.02B3,2013-10-12 19:41:00,
2013-10-12 14:46:00,85.2,70.2,30.05,North,0,0.0,1.0,61,0.00,,,0.00,WeatherCatV1.02B3,2013-10-12 19:46:00,
2013-10-12 14:51:00,84.9,70.9,30.05,North,5,0.0,2.0,63,0.00,,,0.00,WeatherCatV1.02B3,2013-10-12 19:51:00,
2013-10-12 14:56:00,84.7,70.7,30.05,NNE,28,0.0,1.0,63,0.00,,,0.00,WeatherCatV1.02B3,2013-10-12 19:56:00,
2013-10-12 15:01:00,84.5,70.5,30.05,NNE,22,0.0,1.0,63,0.00,,,0.00,WeatherCatV1.02B3,2013-10-12 20:01:00,
2013-10-12 15:06:00,84.2,70.2,30.05,NNE,17,0.0,1.0,63,0.00,,,0.00,WeatherCatV1.02B3,2013-10-12 20:06:00,
2013-10-12 15:11:00,83.9,69.5,30.05,NNE,17,0.0,0.0,62,0.00,,,0.00,WeatherCatV1.02B3,2013-10-12 20:11:00,
2013-10-12 15:16:00,83.6,69.6,30.05,NNE,17,0.0,0.0,63,0.00,,,0.00,WeatherCatV1.02B3,2013-10-12 20:16:00,
2013-10-12 15:21:00,83.3,69.8,30.04,NNE,17,0.0,1.0,64,0.00,,,0.00,WeatherCatV1.02B3,2013-10-12 20:21:00,
2013-10-12 15:26:00,83.0,70.0,30.05,NNE,17,0.0,1.0,65,0.00,,,0.00,WeatherCatV1.02B3,2013-10-12 20:26:00,
2013-10-12 15:31:00,82.8,70.3,30.05,NNE,17,0.0,1.0,66,0.00,,,0.00,WeatherCatV1.02B3,2013-10-12 20:31:00,
2013-10-12 15:36:00,82.6,70.5,30.05,NNE,17,0.0,0.0,67,0.00,,,0.00,WeatherCatV1.02B3,2013-10-12 20:36:00,
2013-10-12 15:41:00,82.4,70.3,30.05,NNE,19,0.0,3.0,67,0.00,,,0.00,WeatherCatV1.02B3,2013-10-12 20:41:00,
2013-10-12 15:46:00,82.3,71.1,30.04,NNE,16,0.0,0.0,69,0.00,,,0.00,WeatherCatV1.02B3,2013-10-12 20:46:00,
2013-10-12 15:51:00,82.1,70.9,30.04,NNE,16,0.0,0.0,69,0.00,,,0.00,WeatherCatV1.02B3,2013-10-12 20:51:00,
2013-10-12 15:56:00,82.0,71.2,30.05,North,0,0.0,0.0,70,0.00,,,0.00,WeatherCatV1.02B3,2013-10-12 20:56:00,
2013-10-12 16:01:00,81.8,71.0,30.05,North,0,0.0,0.0,70,0.00,,,0.00,WeatherCatV1.02B3,2013-10-12 21:01:00,
2013-10-12 16:06:00,81.6,70.8,30.05,North,0,0.0,2.0,70,0.00,,,0.00,WeatherCatV1.02B3,2013-10-12 21:06:00,
2013-10-12 16:11:00,81.5,71.2,30.06,North,5,3.0,3.0,71,0.00,,,0.00,WeatherCatV1.02B3,2013-10-12 21:11:00,
2013-10-12 16:16:00,80.7,69.6,30.06,NNE,28,0.0,6.0,69,0.00,,,0.00,WeatherCatV1.02B3,2013-10-12 21:16:00,
2013-10-12 16:21:00,79.7,68.2,30.06,NW,309,0.0,5.0,68,0.00,,,0.00,WeatherCatV1.02B3,2013-10-12 21:21:00,
2013-10-12 16:26:00,78.5,67.5,30.06,NW,319,0.0,7.0,69,0.00,,,0.00,WeatherCatV1.02B3,2013-10-12 21:26:00,
2013-10-12 16:31:00,77.6,67.4,30.05,NNE,22,1.0,8.0,71,0.00,,,0.00,WeatherCatV1.02B3,2013-10-12 21:31:00,
2013-10-12 16:36:00,77.0,66.9,30.05,NE,36,0.0,11.0,71,0.00,,,0.00,WeatherCatV1.02B3,2013-10-12 21:36:00,
2013-10-12 16:41:00,76.7,67.8,30.06,NNW,342,0.0,8.0,74,0.00,,,0.00,WeatherCatV1.02B3,2013-10-12 21:41:00,
2013-10-12 16:46:00,76.1,68.7,30.07,NW,319,0.0,4.0,78,0.00,,,0.00,WeatherCatV1.02B3,2013-10-12 21:46:00,
2013-10-12 16:51:00,75.2,68.6,30.07,North,349,4.0,6.0,80,0.00,,,0.00,WeatherCatV1.02B3,2013-10-12 21:51:00,
2013-10-12 16:56:00,74.6,68.7,30.07,ENE,64,0.0,4.0,82,0.00,,,0.00,WeatherCatV1.02B3,2013-10-12 21:56:00,
2013-10-12 17:01:00,74.2,68.7,30.07,NNE,32,4.0,4.0,83,0.00,,,0.00,WeatherCatV1.02B3,2013-10-12 22:01:00,
2013-10-12 17:06:00,73.7,68.6,30.07,NNW,328,0.0,0.0,84,0.00,,,0.00,WeatherCatV1.02B3,2013-10-12 22:06:00,
2013-10-12 17:11:00,73.3,68.2,30.07,NNW,345,1.0,1.0,84,0.00,,,0.00,WeatherCatV1.02B3,2013-10-12 22:11:00,
2013-10-12 17:16:00,73.1,68.3,30.07,NNW,345,0.0,0.0,85,0.00,,,0.00,WeatherCatV1.02B3,2013-10-12 22:16:00,
2013-10-12 17:21:00,73.0,68.2,30.06,NNW,345,0.0,0.0,85,0.00,,,0.00,WeatherCatV1.02B3,2013-10-12 22:21:00,
2013-10-12 17:26:00,72.9,68.1,30.06,NNW,345,0.0,1.0,85,0.00,,,0.00,WeatherCatV1.02B3,2013-10-12 22:26:00,
2013-10-12 17:31:00,72.8,68.0,30.06,NNW,346,0.0,0.0,85,0.00,,,0.00,WeatherCatV1.02B3,2013-10-12 22:31:00,
2013-10-12 17:36:00,72.9,68.5,30.05,NNW,346,0.0,0.0,86,0.00,,,0.00,WeatherCatV1.02B3,2013-10-12 22:36:00,
2013-10-12 17:41:00,72.9,68.5,30.05,NNW,346,0.0,0.0,86,0.00,,,0.00,WeatherCatV1.02B3,2013-10-12 22:41:00,
2013-10-12 17:46:00,72.9,68.5,30.04,NNW,346,0.0,0.0,86,0.00,,,0.00,WeatherCatV1.02B3,2013-10-12 22:46:00,
2013-10-12 17:51:00,72.9,68.1,30.04,ESE,113,0.0,2.0,85,0.00,,,0.00,WeatherCatV1.02B3,2013-10-12 22:51:00,
2013-10-12 17:56:00,73.0,68.6,30.04,SSE,164,0.0,1.0,86,0.00,,,0.00,WeatherCatV1.02B3,2013-10-12 22:56:00,
2013-10-12 18:01:00,73.0,68.6,30.05,SSE,159,0.0,0.0,86,0.00,,,0.00,WeatherCatV1.02B3,2013-10-12 23:01:00,
2013-10-12 18:06:00,73.0,68.9,30.04,SSE,159,0.0,0.0,87,0.00,,,0.00,WeatherCatV1.02B3,2013-10-12 23:06:00,
2013-10-12 18:11:00,72.9,68.8,30.04,SSE,157,4.0,4.0,87,0.00,,,0.00,WeatherCatV1.02B3,2013-10-12 23:11:00,
2013-10-12 18:16:00,72.7,68.6,30.03,SSE,147,0.0,5.0,87,0.00,,,0.00,WeatherCatV1.02B3,2013-10-12 23:16:00,
2013-10-12 18:21:00,72.6,68.8,30.04,SSE,147,0.0,1.0,88,0.00,,,0.00,WeatherCatV1.02B3,2013-10-12 23:21:00,
2013-10-12 18:26:00,72.5,68.7,30.04,SSE,147,0.0,0.0,88,0.00,,,0.00,WeatherCatV1.02B3,2013-10-12 23:26:00,
2013-10-12 18:31:00,72.4,68.6,30.05,SSE,147,0.0,0.0,88,0.00,,,0.00,WeatherCatV1.02B3,2013-10-12 23:31:00,
2013-10-12 18:36:00,72.3,68.5,30.05,SSE,147,0.0,0.0,88,0.00,,,0.00,WeatherCatV1.02B3,2013-10-12 23:36:00,
2013-10-12 18:41:00,72.2,68.4,30.05,SSE,147,0.0,0.0,88,0.00,,,0.00,WeatherCatV1.02B3,2013-10-12 23:41:00,
2013-10-12 18:46:00,72.2,68.4,30.05,SSE,147,0.0,0.0,88,0.00,,,0.00,WeatherCatV1.02B3,2013-10-12 23:46:00,
2013-10-12 18:51:00,72.1,68.3,30.05,SSE,147,0.0,0.0,88,0.00,,,0.00,WeatherCatV1.02B3,2013-10-12 23:51:00,
2013-10-12 18:56:00,72.0,68.6,30.06,SSE,147,0.0,0.0,89,0.00,,,0.00,WeatherCatV1.02B3,2013-10-12 23:56:00,
2013-10-12 19:01:00,72.0,68.6,30.06,SSE,147,0.0,0.0,89,0.00,,,0.00,WeatherCatV1.02B3,2013-10-13 00:01:00,
2013-10-12 19:06:00,72.0,68.6,30.06,SSE,147,0.0,0.0,89,0.00,,,0.00,WeatherCatV1.02B3,2013-10-13 00:06:00,
2013-10-12 19:11:00,71.9,68.5,30.06,SSE,147,0.0,0.0,89,0.00,,,0.00,WeatherCatV1.02B3,2013-10-13 00:11:00,
2013-10-12 19:16:00,71.9,68.5,30.07,SSE,147,0.0,0.0,89,0.00,,,0.00,WeatherCatV1.02B3,2013-10-13 00:16:00,
2013-10-12 19:21:00,71.9,68.8,30.06,SSE,147,0.0,0.0,90,0.00,,,0.00,WeatherCatV1.02B3,2013-10-13 00:21:00,
2013-10-12 19:26:00,71.8,68.4,30.06,SSE,147,0.0,0.0,89,0.00,,,0.00,WeatherCatV1.02B3,2013-10-13 00:26:00,
2013-10-12 19:31:00,71.7,68.3,30.06,SSE,147,0.0,0.0,89,0.00,,,0.00,WeatherCatV1.02B3,2013-10-13 00:31:00,
2013-10-12 19:36:00,71.7,68.6,30.06,SSE,147,0.0,0.0,90,0.00,,,0.00,WeatherCatV1.02B3,2013-10-13 00:36:00,
2013-10-12 19:41:00,71.6,68.5,30.07,SSE,147,0.0,0.0,90,0.00,,,0.00,WeatherCatV1.02B3,2013-10-13 00:41:00,
2013-10-12 19:46:00,71.6,68.5,30.07,SSE,147,0.0,0.0,90,0.00,,,0.00,WeatherCatV1.02B3,2013-10-13 00:46:00,
2013-10-12 19:51:00,71.6,68.5,30.07,SSE,147,0.0,0.0,90,0.00,,,0.00,WeatherCatV1.02B3,2013-10-13 00:51:00,
2013-10-12 19:56:00,71.5,68.4,30.07,SSE,147,0.0,0.0,90,0.00,,,0.00,WeatherCatV1.02B3,2013-10-13 00:56:00,
2013-10-12 20:01:00,71.5,68.4,30.08,SSE,147,0.0,0.0,90,0.00,,,0.00,WeatherCatV1.02B3,2013-10-13 01:01:00,
2013-10-12 20:06:00,71.4,68.6,30.07,SSE,147,0.0,0.0,91,0.00,,,0.00,WeatherCatV1.02B3,2013-10-13 01:06:00,
2013-10-12 20:11:00,71.4,68.6,30.08,SSE,147,0.0,0.0,91,0.00,,,0.00,WeatherCatV1.02B3,2013-10-13 01:11:00,
2013-10-12 20:16:00,71.3,68.5,30.08,SSE,147,0.0,0.0,91,0.00,,,0.00,WeatherCatV1.02B3,2013-10-13 01:16:00,
2013-10-12 20:21:00,71.3,68.5,30.08,SSE,147,0.0,0.0,91,0.00,,,0.00,WeatherCatV1.02B3,2013-10-13 01:21:00,
2013-10-12 20:26:00,71.2,68.4,30.08,SSE,147,0.0,0.0,91,0.00,,,0.00,WeatherCatV1.02B3,2013-10-13 01:26:00,
2013-10-12 20:31:00,71.2,68.4,30.08,SSE,147,0.0,0.0,91,0.00,,,0.00,WeatherCatV1.02B3,2013-10-13 01:31:00,
2013-10-12 20:36:00,71.2,68.4,30.08,SSE,147,0.0,0.0,91,0.00,,,0.00,WeatherCatV1.02B3,2013-10-13 01:36:00,
2013-10-12 20:41:00,71.1,68.3,30.08,SSE,147,0.0,0.0,91,0.00,,,0.00,WeatherCatV1.02B3,2013-10-13 01:41:00,
2013-10-12 20:46:00,71.1,68.3,30.08,SSE,147,0.0,0.0,91,0.00,,,0.00,WeatherCatV1.02B3,2013-10-13 01:46:00,
2013-10-12 20:51:00,71.0,68.2,30.09,SSE,147,0.0,0.0,91,0.00,,,0.00,WeatherCatV1.02B3,2013-10-13 01:51:00,
2013-10-12 20:56:00,71.0,68.2,30.09,SSE,147,0.0,0.0,91,0.00,,,0.00,WeatherCatV1.02B3,2013-10-13 01:56:00,
2013-10-12 20:57:00,71.0,68.2,30.09,SSE,147,0.0,0.0,91,0.00,,,0.00,WeatherCatV1.02B3,2013-10-13 01:57:00,
2013-10-12 21:02:00,71.0,68.2,30.09,SSE,147,0.0,0.0,91,0.00,,,0.00,WeatherCatV1.02B3,2013-10-13 02:02:00,
2013-10-12 21:07:00,71.0,68.2,30.09,SSE,147,0.0,0.0,91,0.00,,,0.00,WeatherCatV1.02B3,2013-10-13 02:07:00,
2013-10-12 21:12:00,70.9,68.1,30.10,SSE,147,0.0,0.0,91,0.00,,,0.00,WeatherCatV1.02B3,2013-10-13 02:12:00,
2013-10-12 21:17:00,70.9,68.5,30.10,SSE,147,0.0,0.0,92,0.00,,,0.00,WeatherCatV1.02B3,2013-10-13 02:17:00,
2013-10-12 21:22:00,70.9,68.5,30.10,SSE,147,0.0,0.0,92,0.00,,,0.00,WeatherCatV1.02B3,2013-10-13 02:22:00,
2013-10-12 21:27:00,70.9,68.5,30.10,SSE,147,0.0,0.0,92,0.00,,,0.00,WeatherCatV1.02B3,2013-10-13 02:27:00,
2013-10-12 21:32:00,70.9,68.5,30.10,SSE,147,0.0,0.0,92,0.00,,,0.00,WeatherCatV1.02B3,2013-10-13 02:32:00,
2013-10-12 21:37:00,70.8,68.4,30.10,SSE,147,0.0,0.0,92,0.00,,,0.00,WeatherCatV1.02B3,2013-10-13 02:37:00,
2013-10-12 21:42:00,70.8,68.4,30.10,SSE,147,0.0,0.0,92,0.00,,,0.00,WeatherCatV1.02B3,2013-10-13 02:42:00,
2013-10-12 21:47:00,70.7,68.3,30.10,SSE,147,0.0,0.0,92,0.00,,,0.00,WeatherCatV1.02B3,2013-10-13 02:47:00,
2013-10-12 21:52:00,70.7,68.3,30.10,SSE,147,0.0,0.0,92,0.00,,,0.00,WeatherCatV1.02B3,2013-10-13 02:52:00,
2013-10-12 21:57:00,70.6,68.2,30.11,SSE,147,0.0,0.0,92,0.00,,,0.00,WeatherCatV1.02B3,2013-10-13 02:57:00,
2013-10-12 22:02:00,70.6,68.2,30.11,SSE,147,0.0,0.0,92,0.00,,,0.00,WeatherCatV1.02B3,2013-10-13 03:02:00,
2013-10-12 22:07:00,70.6,68.2,30.11,SSE,147,0.0,0.0,92,0.00,,,0.00,WeatherCatV1.02B3,2013-10-13 03:07:00,
2013-10-12 22:12:00,70.5,68.1,30.11,SSE,147,0.0,0.0,92,0.00,,,0.00,WeatherCatV1.02B3,2013-10-13 03:12:00,
2013-10-12 22:17:00,70.5,68.1,30.12,SSE,147,0.0,0.0,92,0.00,,,0.00,WeatherCatV1.02B3,2013-10-13 03:17:00,
2013-10-12 22:22:00,70.4,68.0,30.12,SSE,147,0.0,0.0,92,0.00,,,0.00,WeatherCatV1.02B3,2013-10-13 03:22:00,
2013-10-12 22:27:00,70.4,68.0,30.12,SSE,147,0.0,0.0,92,0.00,,,0.00,WeatherCatV1.02B3,2013-10-13 03:27:00,
2013-10-12 22:32:00,70.5,68.4,30.11,SSE,147,0.0,0.0,93,0.00,,,0.00,WeatherCatV1.02B3,2013-10-13 03:32:00,
2013-10-12 22:37:00,70.6,68.5,30.11,SSE,147,0.0,0.0,93,0.00,,,0.00,WeatherCatV1.02B3,2013-10-13 03:37:00,
2013-10-12 22:42:00,70.7,68.6,30.11,SSE,147,0.0,0.0,93,0.00,,,0.00,WeatherCatV1.02B3,2013-10-13 03:42:00,
2013-10-12 22:47:00,70.8,69.0,30.11,SSE,147,0.0,2.0,94,0.00,,,0.00,WeatherCatV1.02B3,2013-10-13 03:47:00,
2013-10-12 22:52:00,71.0,69.2,30.11,NNE,24,0.0,0.0,94,0.00,,,0.00,WeatherCatV1.02B3,2013-10-13 03:52:00,
2013-10-12 22:57:00,71.0,69.2,30.11,NNE,24,0.0,0.0,94,0.00,,,0.00,WeatherCatV1.02B3,2013-10-13 03:57:00,
2013-10-12 23:01:00,71.0,69.2,30.11,NNE,24,0.0,1.0,94,0.00,,,0.00,WeatherCatV1.02B3,2013-10-13 04:01:00,
2013-10-12 23:06:00,71.0,69.2,30.11,NNE,24,0.0,0.0,94,0.00,,,0.00,WeatherCatV1.02B3,2013-10-13 04:06:00,
2013-10-12 23:11:00,71.0,69.2,30.11,NNE,24,3.0,3.0,94,0.00,,,0.00,WeatherCatV1.02B3,2013-10-13 04:11:00,
2013-10-12 23:16:00,70.9,69.1,30.10,North,355,0.0,3.0,94,0.00,,,0.00,WeatherCatV1.02B3,2013-10-13 04:16:00,
2013-10-12 23:21:00,70.8,69.0,30.10,North,355,0.0,1.0,94,0.00,,,0.00,WeatherCatV1.02B3,2013-10-13 04:21:00,
2013-10-12 23:26:00,70.8,69.0,30.11,North,355,0.0,0.0,94,0.00,,,0.00,WeatherCatV1.02B3,2013-10-13 04:26:00,
2013-10-12 23:31:00,70.7,68.9,30.11,NNW,344,0.0,1.0,94,0.00,,,0.00,WeatherCatV1.02B3,2013-10-13 04:31:00,
2013-10-12 23:36:00,70.6,68.8,30.11,NNW,340,0.0,0.0,94,0.00,,,0.00,WeatherCatV1.02B3,2013-10-13 04:36:00,
2013-10-12 23:41:00,70.5,68.7,30.12,NNW,342,0.0,1.0,94,0.00,,,0.00,WeatherCatV1.02B3,2013-10-13 04:41:00,
2013-10-12 23:46:00,70.4,68.6,30.11,NE,40,0.0,1.0,94,0.00,,,0.00,WeatherCatV1.02B3,2013-10-13 04:46:00,
2013-10-12 23:51:00,70.3,68.5,30.11,NE,40,0.0,0.0,94,0.00,,,0.00,WeatherCatV1.02B3,2013-10-13 04:51:00,
2013-10-12 23:56:00,70.3,68.5,30.11,NE,40,0.0,0.0,94,0.00,,,0.00,WeatherCatV1.02B3,2013-10-13 04:56:00,